« Back
NWS Peachtree City, Ga » Text Product » GA Regional Weather Roundup


Printer-friendly Version
Current Version              Previous Versions:   1  2  3  4  5  6  7  8  9  

Regional Weather Roundup

765
ASUS42 KFFC 241103
RWRGA
WEATHER ROUNDUP FOR GEORGIA
NATIONAL WEATHER SERVICE PEACHTREE CITY GA
700 AM EDT SUN JUL 24 2016

NOTE: "FAIR" INDICATES FEW OR NO CLOUDS BELOW 12,000 FEET WITH NO
SIGNIFICANT WEATHER AND/OR OBSTRUCTIONS TO VISIBILITY.

* = USE WITH CAUTION. THE STATIONS MARKED WITH AN ASTERISK MAY NOT
REPORT WEATHER SUCH AS PRECIPITATION, FOG, OR THUNDER AND ARE NOT
QUALITY CONTROLLED BY NWS.

THE REMARK "TC" DENOTES TEMPERATURE READING IN DEGREES CELSIUS.

GAZ001>058-241200-
NORTH GEORGIA

CITY           SKY/WX    TMP DP  RH WIND       PRES   REMARKS
ATLANTA        PTCLDY    75  72  90 CALM      30.04R
ATHENS         CLEAR     73  72  96 CALM      30.04R
CHAMBLEE       CLEAR     74  71  91 CALM      30.05R
PEACHTREE CITY CLEAR     70  70 100 CALM      30.05R
ROME           FOG       72  71  97 CALM      30.04R VSB 1/2
WEST ATLANTA   CLEAR     73  70  90 CALM      30.04R
CARTERSVILLE   CLOUDY    70  70 100 CALM      30.05R FOG


CITY           SKY/WX    TMP DP  RH WIND       PRES   REMARKS
DALTON*        FOG       72  72 100 CALM      30.05R VSB 1/2
LAWRENCEVILLE* CLEAR     72  70  94 CALM      30.04  FOG
MARIETTA       MOCLDY    74  72  93 CALM      30.05R
KENNESAW*      CLEAR     72  70  94 CALM      30.02
CANTON*        FOG       70  68  94 CALM      30.07S VSB 1/2
BLAIRSVILLE*   FOG      N/A N/A N/A MISG      30.12R VSB<1/4
$$

GAZ059>098-102>109-241200-
CENTRAL GEORGIA

CITY           SKY/WX    TMP DP  RH WIND       PRES   REMARKS
AUGUSTA-BUSH   PTCLDY    71  70  96 CALM      30.01R
AUGUSTA-DANIEL CLEAR     78  68  71 SW3       30.03R
COLUMBUS       PTCLDY    76  73  91 CALM      30.03R
MACON          CLEAR     74  71  91 CALM      30.03R
ROBINS AFB     CLEAR     73  72  98 SE2       30.02R


CITY           SKY/WX    TMP DP  RH WIND       PRES   REMARKS
LAGRANGE*      PTCLDY    74  74 100 CALM      30.04R
MILLEDGEVILLE* CLEAR     73  73 100 CALM      30.03R
$$

GAZ099>101-110>166-241200-
SOUTH GEORGIA

CITY           SKY/WX    TMP DP  RH WIND       PRES   REMARKS
SAVANNAH       PTCLDY    77  72  84 SW5       30.03R
VALDOSTA       PTCLDY    74  73  97 S3        30.03R
ALMA           CLEAR     71  71 100 CALM      30.03R FOG
ST SIMONS      CLEAR     79  74  84 SW6       30.02R
FT STEWART     CLEAR     74  72  92 CALM      30.01R
ALBANY         CLOUDY    76  73  91 SE3       30.05R
HUNTER AFB     CLEAR     77  77 100 S2        30.00R
MOODY AFB      PTCLDY    74  72  93 S5        30.03R
BRUNSWICK      CLEAR     73  73 100 CALM      30.03S FOG


CITY           SKY/WX    TMP DP  RH WIND       PRES   REMARKS
BAINBRIDGE*    PTCLDY    77  73  88 CALM      30.02R
MOULTRIE*      CLOUDY    73  72  94 CALM      30.03R
VIDALIA*       CLEAR     73  70  88 CALM      30.04R
WAYCROSS*      CLEAR     75  75  99 CALM      30.03R
DOUGLAS*       CLEAR     72  70  94 CALM      30.05R
$$




USA.gov is the U.S. government's official web portal to all federal, state and local government web resources and services.